When you browse on this site, cookies collect data to enhance your experience and personalize the content and advertising you see.
Visit our Privacy Policy to learn more. By continuing to use the site, you agree to this use of cookies and data.
  • In Lithuania
  • List of Countries
  • For 7 days
  • Water Temperature
  • Satellite Maps
  • Weather Map
  • Weather Widgets
  • user-avatar
    Login

    Hourly Weather Djelfa

    Today, 13 December, Thursday

    Time Temperature Precipitation Wind Pressure Humidity
    00:00 +7°C° 0 mm 2 mps 664 mmHg 60%
    01:00 +7°C° 0 mm 2 mps 664 mmHg 60%
    02:00 +6°C° 0 mm 2 mps 663 mmHg 59%
    03:00 +6°C° 0 mm 2 mps 663 mmHg 59%
    04:00 +5°C° 0 mm 3 mps 663 mmHg 59%
    05:00 +5°C° 0 mm 3 mps 663 mmHg 59%
    06:00 +4°C° 0 mm 3 mps 663 mmHg 59%
    07:00 +7°C° 0 mm 3 mps 663 mmHg 53%
    08:00 +8°C° 0 mm 3 mps 663 mmHg 48%
    09:00 +8°C° 0 mm 4 mps 663 mmHg 42%
    10:00 +10°C° 0 mm 4 mps 663 mmHg 38%
    11:00 +12°C° 0 mm 5 mps 663 mmHg 35%
    12:00 +13°C° 0 mm 6 mps 663 mmHg 32%
    13:00 +13°C° 0 mm 6 mps 662 mmHg 32%
    14:00 +13°C° 0 mm 6 mps 662 mmHg 32%
    15:00 +13°C° 0 mm 6 mps 661 mmHg 32%
    16:00 +11°C° 0 mm 6 mps 661 mmHg 37%
    17:00 +11°C° 0 mm 6 mps 661 mmHg 42%
    18:00 +10°C° 0 mm 6 mps 660 mmHg 46%
    19:00 +9°C° 0.5 mm 8 mps 660 mmHg 55%
    20:00 +7°C° 0.5 mm 10 mps 660 mmHg 63%
    21:00 +5°C° 0.5 mm 12 mps 660 mmHg 71%
    22:00 +4°C° 0.2 mm 12 mps 660 mmHg 70%
    23:00 +3°C° 0.2 mm 12 mps 660 mmHg 68%

    Tomorrow, 14 December, Friday

    Time Temperature Precipitation Wind Pressure Humidity
    00:00 +1°C° 0.2 mm 13 mps 660 mmHg 66%
    01:00 +2°C° 0 mm 12 mps 660 mmHg 67%
    02:00 +2°C° 0 mm 11 mps 659 mmHg 68%
    03:00 +1°C° 0 mm 11 mps 659 mmHg 69%
    04:00 0°C° 0 mm 12 mps 659 mmHg 70%
    05:00 0°C° 0 mm 13 mps 659 mmHg 70%
    06:00 0°C° 0 mm 15 mps 658 mmHg 71%
    07:00 +1°C° 0.2 mm 16 mps 658 mmHg 69%
    08:00 +1°C° 0.2 mm 17 mps 659 mmHg 68%
    09:00 +1°C° 0.2 mm 18 mps 659 mmHg 66%
    10:00 +2°C° 0.4 mm 18 mps 659 mmHg 66%
    11:00 +2°C° 0.4 mm 19 mps 659 mmHg 65%
    12:00 +2°C° 0.4 mm 19 mps 659 mmHg 64%
    13:00 +3°C° 0.1 mm 18 mps 660 mmHg 66%
    14:00 +3°C° 0.1 mm 18 mps 660 mmHg 68%
    15:00 +3°C° 0.1 mm 17 mps 660 mmHg 70%
    16:00 +3°C° 0.2 mm 17 mps 661 mmHg 73%
    17:00 +2°C° 0.2 mm 16 mps 662 mmHg 76%
    18:00 +2°C° 0.2 mm 16 mps 662 mmHg 79%
    19:00 +2°C° 0 mm 16 mps 663 mmHg 80%
    20:00 +2°C° 0 mm 15 mps 663 mmHg 81%
    21:00 +1°C° 0 mm 15 mps 664 mmHg 82%
    22:00 +1°C° 0 mm 14 mps 664 mmHg 83%
    23:00 +1°C° 0 mm 13 mps 665 mmHg 83%

    Day after tomorrow, 15 December, Saturday

    Time Temperature Precipitation Wind Pressure Humidity
    00:00 +1°C° 0 mm 13 mps 665 mmHg 83%
    01:00 +2°C° 0 mm 12 mps 665 mmHg 84%
    02:00 +2°C° 0 mm 11 mps 665 mmHg 85%
    03:00 +1°C° 0 mm 10 mps 665 mmHg 86%
    04:00 +1°C° 0 mm 10 mps 666 mmHg 86%
    05:00 +1°C° 0 mm 9 mps 666 mmHg 87%
    06:00 +1°C° 0 mm 9 mps 666 mmHg 87%
    07:00 +2°C° 0 mm 9 mps 667 mmHg 84%
    08:00 +2°C° 0 mm 8 mps 668 mmHg 81%
    09:00 +4°C° 0 mm 8 mps 668 mmHg 77%
    10:00 +5°C° 0 mm 8 mps 668 mmHg 72%
    11:00 +6°C° 0 mm 8 mps 668 mmHg 67%
    12:00 +7°C° 0 mm 8 mps 668 mmHg 61%
    13:00 +7°C° 0 mm 8 mps 668 mmHg 60%
    14:00 +7°C° 0 mm 8 mps 668 mmHg 59%
    15:00 +7°C° 0 mm 8 mps 668 mmHg 58%
    16:00 +7°C° 0 mm 6 mps 668 mmHg 62%
    17:00 +6°C° 0 mm 5 mps 668 mmHg 66%
    18:00 +6°C° 0 mm 4 mps 668 mmHg 70%
    19:00 +5°C° 0 mm 4 mps 668 mmHg 71%
    20:00 +5°C° 0 mm 3 mps 668 mmHg 73%
    21:00 +5°C° 0 mm 2 mps 668 mmHg 75%
    22:00 +5°C° 0 mm 2 mps 668 mmHg 73%
    23:00 +5°C° 0 mm 2 mps 668 mmHg 72%

    16 December, Sunday

    Time Temperature Precipitation Wind Pressure Humidity
    00:00 +5°C° 0 mm 2 mps 668 mmHg 70%
    01:00 +4°C° 0 mm 3 mps 668 mmHg 67%
    02:00 +4°C° 0 mm 3 mps 668 mmHg 64%
    03:00 +4°C° 0 mm 3 mps 667 mmHg 61%
    04:00 +4°C° 0 mm 3 mps 667 mmHg 59%
    05:00 +4°C° 0 mm 3 mps 667 mmHg 58%
    06:00 +4°C° 0 mm 3 mps 667 mmHg 56%
    07:00 +5°C° 0 mm 3 mps 668 mmHg 52%
    08:00 +7°C° 0 mm 3 mps 669 mmHg 48%
    09:00 +9°C° 0 mm 3 mps 669 mmHg 44%
    10:00 +10°C° 0 mm 3 mps 669 mmHg 41%
    11:00 +12°C° 0 mm 3 mps 669 mmHg 38%
    12:00 +14°C° 0 mm 3 mps 669 mmHg 35%
    13:00 +14°C° 0 mm 3 mps 669 mmHg 35%
    14:00 +14°C° 0 mm 3 mps 669 mmHg 35%
    15:00 +16°C° 0 mm 3 mps 669 mmHg 34%
    16:00 +13°C° 0 mm 3 mps 669 mmHg 38%
    17:00 +13°C° 0 mm 2 mps 668 mmHg 42%
    18:00 +10°C° 0 mm 2 mps 668 mmHg 45%
    19:00 +10°C° 0 mm 2 mps 669 mmHg 46%
    20:00 +9°C° 0 mm 2 mps 669 mmHg 47%
    21:00 +9°C° 0 mm 2 mps 669 mmHg 47%
    22:00 +9°C° 0 mm 3 mps 669 mmHg 48%
    23:00 +8°C° 0 mm 3 mps 669 mmHg 48%

    17 December, Monday

    Time Temperature Precipitation Wind Pressure Humidity
    00:00 +8°C° 0 mm 3 mps 669 mmHg 48%
    01:00 +7°C° 0 mm 4 mps 669 mmHg 50%
    02:00 +7°C° 0 mm 4 mps 668 mmHg 52%
    03:00 +6°C° 0 mm 4 mps 668 mmHg 54%
    04:00 +6°C° 0 mm 4 mps 668 mmHg 57%
    05:00 +6°C° 0 mm 5 mps 668 mmHg 60%
    06:00 +5°C° 0 mm 5 mps 668 mmHg 62%
    07:00 +7°C° 0 mm 5 mps 669 mmHg 64%
    08:00 +8°C° 0 mm 5 mps 669 mmHg 66%
    09:00 +9°C° 0 mm 5 mps 670 mmHg 68%
    10:00 +9°C° 0 mm 6 mps 670 mmHg 66%
    11:00 +10°C° 0 mm 6 mps 670 mmHg 65%
    12:00 +11°C° 0 mm 6 mps 670 mmHg 63%
    13:00 +11°C° 0 mm 6 mps 670 mmHg 62%
    14:00 +12°C° 0 mm 5 mps 669 mmHg 61%
    15:00 +12°C° 0 mm 5 mps 669 mmHg 61%
    16:00 +10°C° 0 mm 5 mps 669 mmHg 66%
    17:00 +10°C° 0 mm 4 mps 669 mmHg 70%
    18:00 +9°C° 0 mm 3 mps 670 mmHg 75%
    19:00 +8°C° 0 mm 3 mps 670 mmHg 78%
    20:00 +8°C° 0 mm 2 mps 670 mmHg 81%
    21:00 +7°C° 0 mm 2 mps 670 mmHg 83%
    22:00 +7°C° 0 mm 2 mps 670 mmHg 85%
    23:00 +7°C° 0 mm 1 mps 670 mmHg 87%

    18 December, Tuesday

    Time Temperature Precipitation Wind Pressure Humidity
    00:00 +7°C° 0 mm 1 mps 669 mmHg 88%
    01:00 +6°C° 0 mm 1 mps 669 mmHg 89%
    02:00 +6°C° 0 mm 1 mps 669 mmHg 89%
    03:00 +5°C° 0 mm 1 mps 669 mmHg 90%
    04:00 +5°C° 0 mm 1 mps 668 mmHg 90%
    05:00 +5°C° 0 mm 1 mps 668 mmHg 89%
    06:00 +5°C° 0 mm 1 mps 668 mmHg 89%
    07:00 +6°C° 0 mm 1 mps 669 mmHg 81%
    08:00 +8°C° 0 mm 1 mps 670 mmHg 73%
    09:00 +9°C° 0 mm 1 mps 671 mmHg 65%
    10:00 +10°C° 0 mm 1 mps 670 mmHg 58%
    11:00 +12°C° 0 mm 2 mps 670 mmHg 51%
    12:00 +13°C° 0 mm 2 mps 670 mmHg 44%
    13:00 +13°C° 0 mm 2 mps 670 mmHg 42%
    14:00 +13°C° 0 mm 3 mps 670 mmHg 41%
    15:00 +13°C° 0 mm 3 mps 670 mmHg 39%
    16:00 +12°C° 0 mm 3 mps 670 mmHg 45%
    17:00 +11°C° 0 mm 3 mps 669 mmHg 51%
    18:00 +9°C° 0 mm 3 mps 669 mmHg 56%
    19:00 +9°C° 0 mm 3 mps 669 mmHg 60%
    20:00 +8°C° 0 mm 3 mps 669 mmHg 63%
    21:00 +7°C° 0 mm 3 mps 669 mmHg 66%
    22:00 +7°C° 0 mm 3 mps 669 mmHg 68%
    23:00 +7°C° 0 mm 3 mps 669 mmHg 70%
    Show more